Stündliche Wetter Kyslyak

Heute, 16 Mai, Sonntag

Zeit Temperatur Niederschläge Wind Luftdruck Luftfeuchtigkeit
00:00 +12°C° 0 mm 1 m/S 740 mmHg 85%
01:00 +12°C° 0 mm 1 m/S 740 mmHg 86%
02:00 +11°C° 0 mm 1 m/S 740 mmHg 87%
03:00 +11°C° 0 mm 1 m/S 740 mmHg 87%
04:00 +10°C° 0 mm 2 m/S 740 mmHg 87%
05:00 +10°C° 0 mm 2 m/S 740 mmHg 88%
06:00 +13°C° 0 mm 2 m/S 740 mmHg 83%
07:00 +14°C° 0 mm 3 m/S 740 mmHg 78%
08:00 +17°C° 0 mm 3 m/S 740 mmHg 72%
09:00 +18°C° 0 mm 3 m/S 740 mmHg 69%
10:00 +20°C° 0 mm 3 m/S 740 mmHg 65%
11:00 +21°C° 0 mm 4 m/S 740 mmHg 61%
12:00 +22°C° 0.1 mm 3 m/S 740 mmHg 57%
13:00 +22°C° 0.1 mm 3 m/S 739 mmHg 54%
14:00 +24°C° 0.1 mm 3 m/S 739 mmHg 50%
15:00 +22°C° 0 mm 3 m/S 739 mmHg 55%
16:00 +22°C° 0 mm 3 m/S 739 mmHg 59%
17:00 +21°C° 0 mm 3 m/S 738 mmHg 64%
18:00 +20°C° 0 mm 3 m/S 738 mmHg 69%
19:00 +18°C° 0 mm 3 m/S 738 mmHg 74%
20:00 +16°C° 0 mm 3 m/S 738 mmHg 79%
21:00 +16°C° 0 mm 3 m/S 738 mmHg 80%
22:00 +15°C° 0 mm 2 m/S 737 mmHg 82%
23:00 +14°C° 0 mm 2 m/S 737 mmHg 83%

Morgen, 17 Mai, Montag

Zeit Temperatur Niederschläge Wind Luftdruck Luftfeuchtigkeit
00:00 +14°C° 0 mm 2 m/S 737 mmHg 84%
01:00 +14°C° 0 mm 2 m/S 737 mmHg 85%
02:00 +14°C° 0 mm 2 m/S 737 mmHg 85%
03:00 +14°C° 0 mm 2 m/S 736 mmHg 86%
04:00 +14°C° 0 mm 2 m/S 736 mmHg 86%
05:00 +13°C° 0 mm 3 m/S 736 mmHg 87%
06:00 +14°C° 0 mm 3 m/S 735 mmHg 85%
07:00 +16°C° 0 mm 3 m/S 735 mmHg 84%
08:00 +17°C° 0 mm 3 m/S 735 mmHg 82%
09:00 +16°C° 1.4 mm 3 m/S 735 mmHg 86%
10:00 +16°C° 1.4 mm 3 m/S 735 mmHg 90%
11:00 +14°C° 1.4 mm 3 m/S 735 mmHg 94%
12:00 +16°C° 1 mm 3 m/S 735 mmHg 93%
13:00 +16°C° 1 mm 3 m/S 734 mmHg 92%
14:00 +16°C° 1 mm 3 m/S 734 mmHg 91%
15:00 +16°C° 0.5 mm 3 m/S 734 mmHg 91%
16:00 +16°C° 0.5 mm 3 m/S 734 mmHg 91%
17:00 +15°C° 0.5 mm 4 m/S 733 mmHg 90%
18:00 +14°C° 0 mm 3 m/S 733 mmHg 92%
19:00 +13°C° 0 mm 3 m/S 733 mmHg 93%
20:00 +14°C° 0 mm 2 m/S 733 mmHg 95%
21:00 +13°C° 0 mm 2 m/S 733 mmHg 94%
22:00 +13°C° 0 mm 2 m/S 733 mmHg 94%
23:00 +13°C° 0 mm 2 m/S 733 mmHg 93%

übermorgen, 18 Mai, Dienstag

Zeit Temperatur Niederschläge Wind Luftdruck Luftfeuchtigkeit
00:00 +13°C° 0 mm 2 m/S 733 mmHg 93%
01:00 +12°C° 0 mm 1 m/S 732 mmHg 92%
02:00 +12°C° 0 mm 1 m/S 732 mmHg 92%
03:00 +12°C° 0.1 mm 1 m/S 732 mmHg 92%
04:00 +12°C° 0.1 mm 2 m/S 732 mmHg 93%
05:00 +12°C° 0.1 mm 2 m/S 732 mmHg 93%
06:00 +13°C° 0.6 mm 2 m/S 732 mmHg 93%
07:00 +14°C° 0.6 mm 2 m/S 732 mmHg 94%
08:00 +14°C° 0.6 mm 2 m/S 732 mmHg 94%
09:00 +15°C° 0.4 mm 2 m/S 732 mmHg 91%
10:00 +16°C° 0.4 mm 2 m/S 732 mmHg 89%
11:00 +17°C° 0.4 mm 2 m/S 732 mmHg 86%
12:00 +17°C° 1 mm 4 m/S 732 mmHg 85%
13:00 +15°C° 1 mm 5 m/S 733 mmHg 85%
14:00 +15°C° 1 mm 7 m/S 733 mmHg 84%
15:00 +14°C° 0.2 mm 7 m/S 733 mmHg 85%
16:00 +12°C° 0.2 mm 7 m/S 734 mmHg 86%
17:00 +11°C° 0.2 mm 6 m/S 734 mmHg 87%
18:00 +11°C° 0.1 mm 6 m/S 734 mmHg 87%
19:00 +10°C° 0.1 mm 6 m/S 735 mmHg 88%
20:00 +9°C° 0.1 mm 6 m/S 735 mmHg 88%
21:00 +9°C° 0.2 mm 6 m/S 735 mmHg 89%
22:00 +9°C° 0.2 mm 6 m/S 735 mmHg 90%
23:00 +9°C° 0.2 mm 7 m/S 735 mmHg 90%

19 Mai, Mittwoch

Zeit Temperatur Niederschläge Wind Luftdruck Luftfeuchtigkeit
00:00 +9°C° 0.4 mm 7 m/S 735 mmHg 90%
01:00 +9°C° 0.4 mm 7 m/S 735 mmHg 90%
02:00 +9°C° 0.4 mm 7 m/S 735 mmHg 90%
03:00 +9°C° 0.4 mm 8 m/S 736 mmHg 90%
04:00 +9°C° 0.4 mm 8 m/S 736 mmHg 91%
05:00 +9°C° 0.4 mm 8 m/S 736 mmHg 91%
06:00 +9°C° 1 mm 8 m/S 736 mmHg 90%
07:00 +9°C° 1 mm 8 m/S 736 mmHg 90%
08:00 +9°C° 1 mm 8 m/S 737 mmHg 89%
09:00 +10°C° 0.2 mm 8 m/S 737 mmHg 87%
10:00 +10°C° 0.2 mm 7 m/S 738 mmHg 85%
11:00 +11°C° 0.2 mm 7 m/S 738 mmHg 83%
12:00 +12°C° 0.2 mm 7 m/S 738 mmHg 79%
13:00 +14°C° 0.2 mm 7 m/S 739 mmHg 76%
14:00 +15°C° 0.2 mm 8 m/S 739 mmHg 72%
15:00 +15°C° 0.1 mm 7 m/S 739 mmHg 72%
16:00 +15°C° 0.1 mm 6 m/S 739 mmHg 71%
17:00 +15°C° 0.1 mm 5 m/S 739 mmHg 71%
18:00 +14°C° 0 mm 4 m/S 740 mmHg 76%
19:00 +12°C° 0 mm 3 m/S 740 mmHg 82%
20:00 +12°C° 0 mm 2 m/S 740 mmHg 87%
21:00 +10°C° 0 mm 2 m/S 740 mmHg 88%
22:00 +10°C° 0 mm 2 m/S 740 mmHg 88%
23:00 +9°C° 0 mm 2 m/S 740 mmHg 89%

20 Mai, Donnerstag

Zeit Temperatur Niederschläge Wind Luftdruck Luftfeuchtigkeit
00:00 +10°C° 0 mm 1 m/S 740 mmHg 88%
01:00 +10°C° 0 mm 1 m/S 740 mmHg 87%
02:00 +10°C° 0 mm 1 m/S 740 mmHg 86%
03:00 +10°C° 0 mm 1 m/S 740 mmHg 86%
04:00 +10°C° 0 mm 1 m/S 740 mmHg 86%
05:00 +10°C° 0 mm 1 m/S 740 mmHg 86%
06:00 +10°C° 0 mm 2 m/S 740 mmHg 83%
07:00 +12°C° 0 mm 2 m/S 740 mmHg 81%
08:00 +14°C° 0 mm 2 m/S 740 mmHg 78%
09:00 +14°C° 0.2 mm 2 m/S 740 mmHg 80%
10:00 +14°C° 0.2 mm 2 m/S 740 mmHg 83%
11:00 +14°C° 0.2 mm 2 m/S 740 mmHg 85%
12:00 +14°C° 0.5 mm 2 m/S 740 mmHg 85%
13:00 +14°C° 0.5 mm 1 m/S 740 mmHg 86%
14:00 +14°C° 0.5 mm 1 m/S 739 mmHg 86%
15:00 +13°C° 0.9 mm 1 m/S 739 mmHg 89%
16:00 +13°C° 0.9 mm 2 m/S 739 mmHg 91%
17:00 +12°C° 0.9 mm 2 m/S 739 mmHg 94%
18:00 +12°C° 0.9 mm 2 m/S 739 mmHg 95%
19:00 +11°C° 0.9 mm 3 m/S 739 mmHg 96%
20:00 +10°C° 0.9 mm 3 m/S 739 mmHg 97%
21:00 +10°C° 2.1 mm 4 m/S 738 mmHg 97%
22:00 +9°C° 2.1 mm 5 m/S 737 mmHg 97%
23:00 +9°C° 2.1 mm 6 m/S 737 mmHg 96%

21 Mai, Freitag

Zeit Temperatur Niederschläge Wind Luftdruck Luftfeuchtigkeit
00:00 +9°C° 4 mm 7 m/S 735 mmHg 96%
01:00 +8°C° 4 mm 9 m/S 734 mmHg 96%
02:00 +8°C° 4 mm 10 m/S 733 mmHg 95%
03:00 +10°C° 3.9 mm 9 m/S 732 mmHg 96%
04:00 +10°C° 3.9 mm 9 m/S 731 mmHg 96%
05:00 +10°C° 3.9 mm 9 m/S 730 mmHg 96%
06:00 +10°C° 1.1 mm 8 m/S 730 mmHg 95%
07:00 +10°C° 1.1 mm 7 m/S 730 mmHg 95%
08:00 +10°C° 1.1 mm 5 m/S 730 mmHg 95%
09:00 +10°C° 0.4 mm 6 m/S 731 mmHg 94%
10:00 +10°C° 0.4 mm 6 m/S 731 mmHg 94%
11:00 +10°C° 0.4 mm 6 m/S 731 mmHg 93%
12:00 +9°C° 0.3 mm 8 m/S 732 mmHg 92%
13:00 +8°C° 0.3 mm 10 m/S 733 mmHg 91%
14:00 +8°C° 0.3 mm 11 m/S 734 mmHg 90%
15:00 +8°C° 0.1 mm 10 m/S 736 mmHg 89%
16:00 +8°C° 0.1 mm 9 m/S 737 mmHg 88%
17:00 +10°C° 0.1 mm 8 m/S 738 mmHg 87%
18:00 +9°C° 0 mm 7 m/S 738 mmHg 87%
19:00 +9°C° 0 mm 6 m/S 739 mmHg 88%
20:00 +10°C° 0 mm 4 m/S 740 mmHg 89%
21:00 +8°C° 0 mm 4 m/S 741 mmHg 90%
22:00 +7°C° 0 mm 4 m/S 741 mmHg 91%
23:00 +7°C° 0 mm 3 m/S 742 mmHg 92%
Mehr zeigen

Wir brauchen deine Erlaubnis

Meteoprog und unser Service Anbieter werden persönliche Daten aufbewahren, so wie Cookies, Geräte Bezeichnung oder ähnliche Technologien von deinem Gerät und Prozess, so wie Persönliche Daten Inhalte und Werbungen, genauso wie social Media und den Verkehr zu analysieren.

  • Aufbewahrung und/oder Zugang zu deiner Geräte Informationen.

    Cookies, Geräte Bezeichnung oder andere Informationen, können aufbewahrt oder Zugang zu deinem Gerät erhalten, für den Grund, der oben angegeben wird.

  • Personalisierte Werbung und Inhalte, Messungen, Einblick in das Publikum und Produkt Entwicklung.

    Werbungen und Inhalte können personalisiert werden, basierend auf ein Profil. Mehr Daten können besser personalisierte Werbungen und Inhalte hinzufügen. Werbung und Inhalte können gezeigt und gemessen werden. Einblicke über das Publikum, welche die Werbung gesehen haben und den Inhalt, können abgeleitet werden. So wie Daten können genutzt werden, um es zu verbessern oder die Benutzer Erfahrung zu verbessern das System und die Software.

Wenn du “Ich stimme zu” klickst, erlaubst du uns, die Cookies zu benutzen die Geräte Bezeichnung, den Web oder ähnliche Technologien zu benutzen. Deine Settings, können in deinem Gerät bei deinem Browser geändert werden.

Für den bestimmten Zweck, berechtigten Interessen beruhen darauf, mehr als auf den Inhalt. Du kannst mehr darüber in unseren Privaten und Cookie Politik lesen.